Weather History for KTTF - March, 2014

Change the Weather History Date:

Friday, March 14, 2014

  Actual Average (KDTW) Record (KDTW)
Temperature  
Mean Temperature 35 °F 36 °F  
Max Temperature 51 °F 45 °F 77 °F (1990)
Min Temperature 19 °F 28 °F 2 °F (1895)
Degree Days  
Heating Degree Days 30 29  
Month to date heating degree days 435  
Since 1 July heating degree days 4988  
Cooling Degree Days 0 0  
Month to date cooling degree days 0  
Year to date cooling degree days 0  
Moisture  
Dew Point 26 °F    
Average Humidity 61    
Maximum Humidity 80    
Minimum Humidity 44    
Precipitation  
Precipitation 0.00 in 0.07 in 1.54 in (1997)
Month to date precipitation 0.98  
Year to date precipitation 4.96  
Snow  
Snow 0.00 in 0.20 in 8.50 in (1904)
Month to date snowfall 3.9  
Since 1 July snowfall 37.8  
Snow Depth -    
Sea Level Pressure  
Sea Level Pressure 29.73 in    
Wind  
Wind Speed 9 mph (SW)    
Max Wind Speed 28 mph    
Max Gust Speed 44 mph    
Visibility 10 miles    
Events      
T = Trace of Precipitation, MM = Missing Value Source: NWS Daily Summary

Daily Weather History Graph

Daily Weather History Graph

Search for Another Location

Airport or City:

Trip Planner

Search our weather history database for the weather conditions in past years. The results will help you decide how hot, cold, wet, or windy it might be!

Date:

Astronomy

Mar. 14, 2014 Rise Set
Actual Time 7:47 AM EDT 7:39 PM EDT
Civil Twilight 7:19 AM EDT 8:06 PM EDT
Nautical Twilight 6:47 AM EDT 8:39 PM EDT
Astronomical Twilight 6:14 AM EDT 9:12 PM EDT
Moon 5:59 PM EDT (3/14) 6:28 AM EDT (3/14)
Length of Visible Light 12h 47m
Length of Day
11h 51m
Waxing Gibbous, 96% of the Moon is Illuminated
Mar 14
Waxing Gibbous
Mar 16
Full
Mar 23
Last Quarter
Mar 30
New
Apr 7
First Quarter

Hourly Weather History & Observations

Time (EDT) Temp. Windchill Dew Point Humidity Pressure Visibility Wind Dir Wind Speed Gust Speed Precip Events Conditions
12:16 AM 19.4 °F - 12.2 °F 74% 29.97 in 10.0 mi Calm Calm - N/A   Clear
12:36 AM 19.4 °F - 14.0 °F 80% 29.95 in 10.0 mi Calm Calm - N/A   Clear
12:56 AM 19.4 °F - 14.0 °F 80% 29.94 in 10.0 mi Calm Calm - N/A   Scattered Clouds
1:16 AM 19.4 °F - 14.0 °F 80% 29.93 in 10.0 mi Calm Calm - N/A   Clear
1:36 AM 21.2 °F - 15.8 °F 80% 29.92 in 10.0 mi Calm Calm - N/A   Clear
1:57 AM 21.2 °F - 15.8 °F 80% 29.91 in 10.0 mi Calm Calm - N/A   Clear
2:12 AM 21.2 °F - 15.8 °F 80% 29.91 in 10.0 mi Calm Calm - N/A   Clear
2:32 AM 23.0 °F - 17.6 °F 80% 29.91 in 10.0 mi Calm Calm - N/A   Clear
2:52 AM 21.2 °F - 15.8 °F 80% 29.90 in 10.0 mi Calm Calm - N/A   Clear
3:12 AM 24.8 °F - 17.6 °F 74% 29.89 in 10.0 mi Calm Calm - N/A   Clear
3:32 AM 28.4 °F 19.1 °F 19.4 °F 69% 29.88 in 10.0 mi SSW 10.4 mph - N/A   Clear
3:52 AM 28.4 °F 19.7 °F 19.4 °F 69% 29.87 in 10.0 mi SW 9.2 mph - N/A   Clear
4:12 AM 28.4 °F 22.2 °F 19.4 °F 69% 29.87 in 10.0 mi SSW 5.8 mph - N/A   Clear
4:32 AM 28.4 °F - 19.4 °F 69% 29.86 in 10.0 mi Calm Calm - N/A   Clear
4:52 AM 26.6 °F - 19.4 °F 74% 29.85 in 10.0 mi Calm Calm - N/A   Clear
5:13 AM 28.4 °F - 19.4 °F 69% 29.84 in 10.0 mi Calm Calm - N/A   Clear
5:33 AM 28.4 °F 21.2 °F 19.4 °F 69% 29.84 in 10.0 mi SSW 6.9 mph - N/A   Clear
5:53 AM 28.4 °F 20.4 °F 19.4 °F 69% 29.83 in 10.0 mi SSW 8.1 mph - N/A   Clear
6:13 AM 30.2 °F 22.6 °F 21.2 °F 69% 29.82 in 10.0 mi SSW 8.1 mph - N/A   Clear
6:33 AM 30.2 °F 21.9 °F 21.2 °F 69% 29.81 in 10.0 mi SSW 9.2 mph - N/A   Clear
6:53 AM 30.2 °F 21.3 °F 21.2 °F 69% 29.80 in 10.0 mi SSW 10.4 mph - N/A   Clear
7:13 AM 30.2 °F 21.9 °F 21.2 °F 69% 29.80 in 10.0 mi SSW 9.2 mph - N/A   Clear
7:33 AM 33.8 °F 24.8 °F 23.0 °F 65% 29.79 in 10.0 mi SSW 12.7 mph - N/A   Clear
7:53 AM 33.8 °F 24.3 °F 23.0 °F 65% 29.79 in 10.0 mi SSW 13.8 mph - N/A   Clear
8:13 AM 35.6 °F 27.1 °F 24.8 °F 65% 29.79 in 10.0 mi SSW 12.7 mph 17.3 mph N/A   Clear
8:34 AM 35.6 °F 27.5 °F 24.8 °F 65% 29.77 in 10.0 mi SSW 11.5 mph - N/A   Scattered Clouds
8:54 AM 37.4 °F 28.2 °F 24.8 °F 60% 29.77 in 10.0 mi SSW 16.1 mph 20.7 mph N/A   Clear
9:14 AM 37.4 °F 28.2 °F 24.8 °F 60% 29.76 in 10.0 mi SSW 16.1 mph 23.0 mph N/A   Clear
9:34 AM 39.2 °F 31.2 °F 26.6 °F 61% 29.76 in 10.0 mi SSW 13.8 mph - N/A   Clear
9:54 AM 39.2 °F 30.2 °F 26.6 °F 61% 29.74 in 10.0 mi SSW 17.3 mph 25.3 mph N/A   Clear
10:14 AM 42.8 °F 35.4 °F 26.6 °F 53% 29.73 in 10.0 mi SSW 15.0 mph 24.2 mph N/A   Clear
10:34 AM 42.8 °F 35.4 °F 26.6 °F 53% 29.73 in 10.0 mi SSW 15.0 mph 21.9 mph N/A   Clear
10:54 AM 44.6 °F 38.1 °F 26.6 °F 49% 29.72 in 10.0 mi SW 13.8 mph 21.9 mph N/A   Clear
11:15 AM 44.6 °F 37.2 °F 26.6 °F 49% 29.72 in 10.0 mi SSW 17.3 mph 23.0 mph N/A   Clear
11:35 AM 46.4 °F 40.4 °F 26.6 °F 46% 29.71 in 10.0 mi SSW 13.8 mph 24.2 mph N/A   Clear
11:55 AM 46.4 °F 39.8 °F 26.6 °F 46% 29.70 in 10.0 mi SW 16.1 mph 21.9 mph N/A   Clear
12:15 PM 46.4 °F 40.1 °F 26.6 °F 46% 29.70 in 10.0 mi SSW 15.0 mph 21.9 mph N/A   Clear
12:35 PM 46.4 °F 40.1 °F 28.4 °F 50% 29.69 in 10.0 mi SSW 15.0 mph 19.6 mph N/A   Clear
12:55 PM 46.4 °F 40.4 °F 28.4 °F 50% 29.68 in 10.0 mi SSW 13.8 mph 23.0 mph N/A   Clear
1:15 PM 46.4 °F 40.4 °F 28.4 °F 50% 29.66 in 10.0 mi SSW 13.8 mph 20.7 mph N/A   Clear
1:35 PM 46.4 °F 39.2 °F 28.4 °F 50% 29.65 in 10.0 mi SSW 18.4 mph 24.2 mph N/A   Clear
1:55 PM 48.2 °F - 28.4 °F 46% 29.64 in 10.0 mi SSW 16.1 mph 23.0 mph N/A   Clear
2:15 PM 48.2 °F - 28.4 °F 46% 29.63 in 10.0 mi SSW 20.7 mph 27.6 mph N/A   Clear
2:36 PM 48.2 °F - 28.4 °F 46% 29.62 in 10.0 mi SW 19.6 mph 25.3 mph N/A   Clear
2:56 PM 48.2 °F - 30.2 °F 50% 29.61 in 10.0 mi SSW 19.6 mph 28.8 mph N/A   Clear
3:16 PM 48.2 °F - 30.2 °F 50% 29.59 in 10.0 mi SSW 17.3 mph 26.5 mph N/A   Clear
3:36 PM 50.0 °F - 30.2 °F 47% 29.59 in 10.0 mi SW 18.4 mph 26.5 mph N/A   Clear
3:56 PM 51.8 °F - 30.2 °F 44% 29.58 in 10.0 mi SW 19.6 mph 29.9 mph N/A   Clear
4:16 PM 51.8 °F - 30.2 °F 44% 29.58 in 10.0 mi SW 27.6 mph 43.7 mph N/A   Clear
4:36 PM 51.8 °F - 30.2 °F 44% 29.58 in 10.0 mi SW 27.6 mph 41.4 mph N/A   Clear
4:56 PM 51.8 °F - 30.2 °F 44% 29.58 in 10.0 mi SW 23.0 mph 39.1 mph N/A   Clear
5:16 PM 51.8 °F - 32.0 °F 47% 29.58 in 10.0 mi WSW 23.0 mph 36.8 mph N/A   Clear
5:36 PM 51.8 °F - 33.8 °F 50% 29.58 in 10.0 mi SW 24.2 mph 36.8 mph N/A   Clear
5:57 PM 51.8 °F - 33.8 °F 50% 29.58 in 10.0 mi WSW 24.2 mph 33.4 mph N/A   Clear
6:12 PM 50.0 °F - 33.8 °F 54% 29.58 in 10.0 mi WSW 19.6 mph - N/A   Scattered Clouds
6:32 PM 50.0 °F - 33.8 °F 54% 29.59 in 10.0 mi WSW 21.9 mph 28.8 mph N/A   Scattered Clouds
6:52 PM 48.2 °F - 33.8 °F 58% 29.59 in 10.0 mi WSW 19.6 mph 25.3 mph N/A   Clear
7:12 PM 48.2 °F - 33.8 °F 58% 29.60 in 10.0 mi WSW 17.3 mph 25.3 mph N/A   Mostly Cloudy
7:32 PM 46.4 °F 39.8 °F 33.8 °F 62% 29.60 in 10.0 mi WSW 16.1 mph 21.9 mph N/A   Scattered Clouds
7:52 PM 46.4 °F 40.1 °F 33.8 °F 62% 29.61 in 10.0 mi WSW 15.0 mph 20.7 mph N/A   Clear
8:12 PM 46.4 °F 40.1 °F 33.8 °F 62% 29.62 in 10.0 mi WSW 15.0 mph 20.7 mph N/A   Clear
8:32 PM 44.6 °F 38.1 °F 33.8 °F 66% 29.63 in 10.0 mi WSW 13.8 mph 20.7 mph N/A   Clear
8:52 PM 44.6 °F 37.8 °F 33.8 °F 66% 29.64 in 10.0 mi WSW 15.0 mph - N/A   Clear
9:13 PM 44.6 °F 37.4 °F 33.8 °F 66% 29.64 in 10.0 mi WSW 16.1 mph 19.6 mph N/A   Clear
9:33 PM 44.6 °F 37.4 °F 33.8 °F 66% 29.65 in 10.0 mi WSW 16.1 mph 20.7 mph N/A   Clear
9:53 PM 44.6 °F 36.9 °F 33.8 °F 66% 29.66 in 10.0 mi West 18.4 mph 23.0 mph N/A   Clear
10:13 PM 44.6 °F 37.4 °F 32.0 °F 61% 29.67 in 10.0 mi West 16.1 mph 24.2 mph N/A   Clear
10:33 PM 42.8 °F 34.5 °F 30.2 °F 61% 29.68 in 10.0 mi West 18.4 mph 26.5 mph N/A   Clear
10:53 PM 42.8 °F 34.0 °F 30.2 °F 61% 29.69 in 10.0 mi West 20.7 mph 25.3 mph N/A   Clear
11:13 PM 42.8 °F 34.5 °F 30.2 °F 61% 29.70 in 10.0 mi West 18.4 mph 24.2 mph N/A   Clear
11:33 PM 41.0 °F 32.8 °F 30.2 °F 65% 29.71 in 10.0 mi West 16.1 mph 27.6 mph N/A   Clear
11:53 PM 41.0 °F 32.2 °F 30.2 °F 65% 29.72 in 10.0 mi West 18.4 mph 21.9 mph N/A   Scattered Clouds